Time,TemperatureF,DewpointF,PressureIn,WindDirection,WindDirectionDegrees,WindSpeedMPH,WindSpeedGustMPH,Humidity,HourlyPrecipIn,Conditions,Clouds,dailyrainin,SoftwareType,DateUTC
2013-04-06 00:02:00,34.0,27.0,30.03,East,90,0.0,1.0,76,-99.99,,,-99.99,,2013-04-06 05:02:00,
2013-04-06 00:10:00,34.0,27.0,30.03,East,90,0.0,1.0,76,-99.99,,,-99.99,,2013-04-06 05:10:00,
2013-04-06 00:13:00,34.0,27.0,30.03,East,90,0.0,1.0,76,-99.99,,,-99.99,,2013-04-06 05:13:00,
2013-04-06 00:22:00,34.0,27.0,30.03,SE,135,0.0,1.0,76,-99.99,,,-99.99,,2013-04-06 05:22:00,
2013-04-06 00:32:00,34.0,27.0,30.03,East,90,0.0,1.0,76,-99.99,,,-99.99,,2013-04-06 05:32:00,
2013-04-06 00:42:00,34.0,27.0,30.03,East,90,0.0,1.0,76,-99.99,,,-99.99,,2013-04-06 05:42:00,
2013-04-06 00:51:00,34.0,27.0,30.03,East,90,0.0,1.0,76,-99.99,,,-99.99,,2013-04-06 05:51:00,
2013-04-06 01:02:00,34.0,27.0,30.03,East,90,0.0,1.0,76,-99.99,,,-99.99,,2013-04-06 06:02:00,
2013-04-06 01:53:00,33.0,26.0,29.98,East,90,2.0,2.0,76,-99.99,,,-99.99,,2013-04-06 06:53:00,
2013-04-06 02:03:00,33.0,27.0,29.98,East,94,1.0,3.0,77,-99.99,,,-99.99,,2013-04-06 07:03:00,
2013-04-06 02:12:00,33.0,27.0,29.98,East,94,1.0,3.0,77,-99.99,,,-99.99,,2013-04-06 07:12:00,
2013-04-06 02:22:00,33.0,26.0,29.98,East,90,0.0,2.0,76,-99.99,,,-99.99,,2013-04-06 07:22:00,
2013-04-06 02:33:00,33.0,26.0,29.97,ENE,63,1.0,2.0,76,-99.99,,,-99.99,,2013-04-06 07:33:00,
2013-04-06 02:43:00,33.0,26.0,29.97,ENE,63,1.0,2.0,76,-99.99,,,-99.99,,2013-04-06 07:43:00,
2013-04-06 02:53:00,33.0,27.0,29.97,SE,135,1.0,3.0,77,-99.99,,,-99.99,,2013-04-06 07:53:00,
2013-04-06 03:02:00,33.0,27.0,29.97,SE,135,1.0,3.0,77,-99.99,,,-99.99,,2013-04-06 08:02:00,
2013-04-06 03:12:00,33.0,27.0,29.97,SE,135,1.0,3.0,77,-99.99,,,-99.99,,2013-04-06 08:12:00,
2013-04-06 03:22:00,33.0,26.0,29.96,East,81,0.0,3.0,76,-99.99,,,-99.99,,2013-04-06 08:22:00,
2013-04-06 03:32:00,33.0,26.0,29.96,East,81,0.0,3.0,76,-99.99,,,-99.99,,2013-04-06 08:32:00,
2013-04-06 03:42:00,33.0,26.0,29.96,East,81,0.0,3.0,76,-99.99,,,-99.99,,2013-04-06 08:42:00,
2013-04-06 03:52:00,33.0,27.0,29.95,East,90,0.0,1.0,77,-99.99,,,-99.99,,2013-04-06 08:52:00,
2013-04-06 04:02:00,33.0,27.0,29.95,East,90,0.0,1.0,77,-99.99,,,-99.99,,2013-04-06 09:02:00,
2013-04-06 04:12:00,33.0,27.0,29.95,East,90,0.0,1.0,77,-99.99,,,-99.99,,2013-04-06 09:12:00,
2013-04-06 04:22:00,33.0,27.0,29.93,East,90,1.0,3.0,78,-99.99,,,-99.99,,2013-04-06 09:22:00,
2013-04-06 04:32:00,33.0,27.0,29.93,East,90,1.0,3.0,78,-99.99,,,-99.99,,2013-04-06 09:32:00,
2013-04-06 04:43:00,33.0,27.0,29.93,East,90,1.0,3.0,78,-99.99,,,-99.99,,2013-04-06 09:43:00,
2013-04-06 04:53:00,32.0,26.0,29.92,ESE,121,3.0,4.0,78,-99.99,,,-99.99,,2013-04-06 09:53:00,
2013-04-06 05:03:00,32.0,26.0,29.92,ESE,121,3.0,4.0,78,-99.99,,,-99.99,,2013-04-06 10:03:00,
2013-04-06 05:13:00,32.0,26.0,29.92,ESE,121,3.0,4.0,78,-99.99,,,-99.99,,2013-04-06 10:13:00,
2013-04-06 05:22:00,32.0,26.0,29.91,East,90,1.0,2.0,77,-99.99,,,-99.99,,2013-04-06 10:22:00,
2013-04-06 05:33:00,32.0,26.0,29.89,East,90,4.0,4.0,78,-99.99,,,-99.99,,2013-04-06 10:33:00,
2013-04-06 05:42:00,32.0,26.0,29.89,East,90,4.0,4.0,78,-99.99,,,-99.99,,2013-04-06 10:42:00,
2013-04-06 05:52:00,32.0,26.0,29.90,South,175,1.0,2.0,77,-99.99,,,-99.99,,2013-04-06 10:52:00,
2013-04-06 06:02:00,32.0,26.0,29.90,ESE,121,2.0,2.0,77,-99.99,,,-99.99,,2013-04-06 11:02:00,
2013-04-06 06:12:00,32.0,26.0,29.90,ESE,121,2.0,2.0,77,-99.99,,,-99.99,,2013-04-06 11:12:00,
2013-04-06 06:22:00,32.0,25.0,29.88,East,90,1.0,2.0,76,-99.99,,,-99.99,,2013-04-06 11:22:00,
2013-04-06 06:32:00,32.0,25.0,29.88,East,90,1.0,2.0,76,-99.99,,,-99.99,,2013-04-06 11:32:00,
2013-04-06 06:42:00,32.0,25.0,29.88,East,90,1.0,2.0,76,-99.99,,,-99.99,,2013-04-06 11:42:00,
2013-04-06 06:52:00,32.0,25.0,29.88,SE,135,1.0,2.0,76,-99.99,,,-99.99,,2013-04-06 11:52:00,
2013-04-06 07:02:00,32.0,25.0,29.87,East,90,1.0,3.0,76,-99.99,,,-99.99,,2013-04-06 12:02:00,
2013-04-06 07:12:00,32.0,25.0,29.87,East,90,1.0,3.0,76,-99.99,,,-99.99,,2013-04-06 12:12:00,
2013-04-06 07:21:00,32.0,25.0,29.84,SE,144,2.0,3.0,76,-99.99,,,-99.99,,2013-04-06 12:21:00,
2013-04-06 07:22:00,32.0,25.0,29.86,SSE,150,1.0,4.0,76,-99.99,,,-99.99,,2013-04-06 12:22:00,
2013-04-06 07:32:00,32.0,25.0,29.85,SSE,166,2.0,4.0,76,-99.99,,,-99.99,,2013-04-06 12:32:00,
2013-04-06 07:43:00,32.0,25.0,29.85,SSE,166,2.0,4.0,76,-99.99,,,-99.99,,2013-04-06 12:43:00,
2013-04-06 07:52:00,32.0,25.0,29.84,SE,144,2.0,3.0,76,-99.99,,,-99.99,,2013-04-06 12:52:00,
2013-04-06 08:02:00,32.0,25.0,29.84,SE,144,2.0,3.0,76,-99.99,,,-99.99,,2013-04-06 13:02:00,
2013-04-06 08:12:00,32.0,25.0,29.84,SE,144,2.0,3.0,76,-99.99,,,-99.99,,2013-04-06 13:12:00,
2013-04-06 09:11:00,37.0,26.0,29.78,SE,135,3.0,4.0,65,-99.99,,,-99.99,,2013-04-06 14:11:00,
2013-04-06 09:13:00,36.0,26.0,29.77,SE,130,2.0,5.0,66,-99.99,,,-99.99,,2013-04-06 14:13:00,
2013-04-06 09:23:00,36.0,26.0,29.77,SE,130,2.0,5.0,66,-99.99,,,-99.99,,2013-04-06 14:23:00,
2013-04-06 09:33:00,37.0,26.0,29.78,SE,135,3.0,4.0,65,-99.99,,,-99.99,,2013-04-06 14:33:00,
2013-04-06 09:43:00,37.0,26.0,29.78,SE,135,3.0,4.0,65,-99.99,,,-99.99,,2013-04-06 14:43:00,
2013-04-06 09:53:00,37.0,26.0,29.78,SE,135,3.0,4.0,65,-99.99,,,-99.99,,2013-04-06 14:53:00,
2013-04-06 10:02:00,37.0,26.0,29.78,SE,135,3.0,4.0,65,-99.99,,,-99.99,,2013-04-06 15:02:00,
2013-04-06 10:11:00,38.0,27.0,29.74,SE,135,1.0,8.0,64,-99.99,,,-99.99,,2013-04-06 15:11:00,
2013-04-06 10:33:00,38.0,27.0,29.74,SE,135,1.0,8.0,64,-99.99,,,-99.99,,2013-04-06 15:33:00,
2013-04-06 10:43:00,38.0,27.0,29.74,SE,135,1.0,8.0,64,-99.99,,,-99.99,,2013-04-06 15:43:00,
2013-04-06 10:53:00,38.0,27.0,29.74,SE,135,1.0,8.0,64,-99.99,,,-99.99,,2013-04-06 15:53:00,
2013-04-06 11:05:00,38.0,27.0,29.74,SE,135,1.0,8.0,64,-99.99,,,-99.99,,2013-04-06 16:05:00,
2013-04-06 11:53:00,40.0,29.0,29.68,East,94,3.0,4.0,65,-99.99,,,-99.99,,2013-04-06 16:53:00,
2013-04-06 12:03:00,40.0,29.0,29.67,ESE,115,3.0,3.0,65,-99.99,,,-99.99,,2013-04-06 17:03:00,
2013-04-06 12:12:00,40.0,29.0,29.67,ESE,115,3.0,3.0,65,-99.99,,,-99.99,,2013-04-06 17:12:00,
2013-04-06 12:22:00,40.0,29.0,29.67,SE,135,1.0,2.0,65,-99.99,,,-99.99,,2013-04-06 17:22:00,
2013-04-06 12:32:00,40.0,29.0,29.67,SE,135,1.0,2.0,65,-99.99,,,-99.99,,2013-04-06 17:32:00,
2013-04-06 12:42:00,40.0,29.0,29.67,SE,135,1.0,2.0,65,-99.99,,,-99.99,,2013-04-06 17:42:00,
2013-04-06 12:52:00,40.0,30.0,29.65,SE,135,1.0,2.0,66,-99.99,,,-99.99,,2013-04-06 17:52:00,
2013-04-06 13:02:00,40.0,30.0,29.65,SE,135,1.0,2.0,66,-99.99,,,-99.99,,2013-04-06 18:02:00,
2013-04-06 13:12:00,40.0,30.0,29.65,SE,135,1.0,2.0,66,-99.99,,,-99.99,,2013-04-06 18:12:00,
2013-04-06 13:21:00,45.0,31.0,29.62,ESE,120,3.0,5.0,58,-99.99,,,-99.99,,2013-04-06 18:21:00,
2013-04-06 13:23:00,42.0,31.0,29.63,SE,130,2.0,3.0,65,-99.99,,,-99.99,,2013-04-06 18:23:00,
2013-04-06 13:32:00,42.0,31.0,29.63,SE,130,2.0,3.0,65,-99.99,,,-99.99,,2013-04-06 18:32:00,
2013-04-06 13:42:00,42.0,31.0,29.63,SE,130,2.0,3.0,65,-99.99,,,-99.99,,2013-04-06 18:42:00,
2013-04-06 13:52:00,45.0,31.0,29.62,ESE,120,3.0,5.0,58,-99.99,,,-99.99,,2013-04-06 18:52:00,
2013-04-06 14:03:00,45.0,31.0,29.62,ESE,120,3.0,5.0,58,-99.99,,,-99.99,,2013-04-06 19:03:00,
2013-04-06 14:12:00,45.0,31.0,29.62,ESE,120,3.0,5.0,58,-99.99,,,-99.99,,2013-04-06 19:12:00,
2013-04-06 14:54:00,48.0,33.0,29.58,SE,135,2.0,9.0,55,-99.99,,,-99.99,,2013-04-06 19:54:00,
2013-04-06 15:03:00,48.0,33.0,29.58,SE,135,2.0,9.0,55,-99.99,,,-99.99,,2013-04-06 20:03:00,
2013-04-06 15:12:00,48.0,33.0,29.58,SE,135,2.0,9.0,55,-99.99,,,-99.99,,2013-04-06 20:12:00,
2013-04-06 15:22:00,48.0,33.0,29.57,East,101,2.0,3.0,55,-99.99,,,-99.99,,2013-04-06 20:22:00,
2013-04-06 15:32:00,48.0,33.0,29.56,SE,135,2.0,2.0,56,-99.99,,,-99.99,,2013-04-06 20:32:00,
2013-04-06 15:42:00,48.0,33.0,29.56,SE,135,2.0,2.0,56,-99.99,,,-99.99,,2013-04-06 20:42:00,
2013-04-06 15:52:00,47.0,33.0,29.54,SE,135,0.0,2.0,58,-99.99,,,-99.99,,2013-04-06 20:52:00,
2013-04-06 16:02:00,47.0,33.0,29.54,SE,135,0.0,2.0,58,-99.99,,,-99.99,,2013-04-06 21:02:00,
2013-04-06 16:13:00,47.0,33.0,29.53,SE,135,1.0,1.0,59,-99.99,,,-99.99,,2013-04-06 21:13:00,
2013-04-06 16:22:00,47.0,33.0,29.53,SE,135,1.0,1.0,59,-99.99,,,-99.99,,2013-04-06 21:22:00,
2013-04-06 16:33:00,48.0,34.0,29.53,SE,135,0.0,2.0,58,-99.99,,,-99.99,,2013-04-06 21:33:00,
2013-04-06 16:43:00,48.0,34.0,29.53,SE,135,0.0,2.0,58,-99.99,,,-99.99,,2013-04-06 21:43:00,
2013-04-06 16:52:00,47.0,33.0,29.52,East,90,1.0,2.0,59,-99.99,,,-99.99,,2013-04-06 21:52:00,
2013-04-06 17:03:00,47.0,33.0,29.52,East,90,0.0,1.0,59,-99.99,,,-99.99,,2013-04-06 22:03:00,
2013-04-06 17:13:00,47.0,33.0,29.52,East,90,0.0,1.0,59,-99.99,,,-99.99,,2013-04-06 22:13:00,
2013-04-06 17:23:00,48.0,34.0,29.51,SE,135,0.0,1.0,59,-99.99,,,-99.99,,2013-04-06 22:23:00,
2013-04-06 17:34:00,48.0,34.0,29.50,SE,130,0.0,1.0,59,-99.99,,,-99.99,,2013-04-06 22:34:00,
2013-04-06 17:43:00,48.0,34.0,29.50,SE,130,0.0,1.0,59,-99.99,,,-99.99,,2013-04-06 22:43:00,
2013-04-06 17:53:00,47.0,35.0,29.49,ENE,76,1.0,3.0,63,-99.99,,,-99.99,,2013-04-06 22:53:00,
2013-04-06 18:03:00,47.0,35.0,29.49,ENE,76,1.0,3.0,63,-99.99,,,-99.99,,2013-04-06 23:03:00,
2013-04-06 18:13:00,47.0,35.0,29.49,ENE,76,1.0,3.0,63,-99.99,,,-99.99,,2013-04-06 23:13:00,
2013-04-06 18:23:00,45.0,35.0,29.47,East,90,0.0,0.0,68,-99.99,,,-99.99,,2013-04-06 23:23:00,
2013-04-06 18:33:00,44.0,35.0,29.47,WSW,258,1.0,1.0,70,-99.99,,,-99.99,,2013-04-06 23:33:00,
2013-04-06 18:43:00,44.0,35.0,29.47,WSW,258,1.0,1.0,70,-99.99,,,-99.99,,2013-04-06 23:43:00,
2013-04-06 18:53:00,44.0,36.0,29.47,East,90,2.0,3.0,73,-99.99,,,-99.99,,2013-04-06 23:53:00,
2013-04-06 19:02:00,44.0,36.0,29.47,East,90,2.0,3.0,73,-99.99,,,-99.99,,2013-04-07 00:02:00,
2013-04-06 19:12:00,44.0,36.0,29.47,East,90,2.0,3.0,73,-99.99,,,-99.99,,2013-04-07 00:12:00,
2013-04-06 19:22:00,43.0,35.0,29.45,SE,135,0.0,0.0,74,-99.99,,,-99.99,,2013-04-07 00:22:00,
2013-04-06 19:32:00,43.0,35.0,29.43,East,90,0.0,1.0,73,-99.99,,,-99.99,,2013-04-07 00:32:00,
2013-04-06 19:43:00,43.0,35.0,29.43,East,90,0.0,1.0,73,-99.99,,,-99.99,,2013-04-07 00:43:00,
2013-04-06 19:53:00,43.0,35.0,29.42,SW,225,0.0,0.0,73,-99.99,,,-99.99,,2013-04-07 00:53:00,
2013-04-06 20:02:00,43.0,35.0,29.42,SW,225,0.0,0.0,73,-99.99,,,-99.99,,2013-04-07 01:02:00,
2013-04-06 20:12:00,43.0,35.0,29.42,SW,225,0.0,0.0,73,-99.99,,,-99.99,,2013-04-07 01:12:00,
2013-04-06 20:23:00,43.0,36.0,29.42,NE,45,0.0,0.0,75,-99.99,,,-99.99,,2013-04-07 01:23:00,
2013-04-06 20:32:00,43.0,36.0,29.42,South,180,0.0,0.0,76,-99.99,,,-99.99,,2013-04-07 01:32:00,
2013-04-06 20:43:00,43.0,36.0,29.42,South,180,0.0,0.0,76,-99.99,,,-99.99,,2013-04-07 01:43:00,
2013-04-06 20:53:00,43.0,36.0,29.43,SE,135,0.0,1.0,76,-99.99,,,-99.99,,2013-04-07 01:53:00,
2013-04-06 21:03:00,43.0,36.0,29.43,SE,135,0.0,1.0,76,-99.99,,,-99.99,,2013-04-07 02:03:00,
2013-04-06 21:12:00,43.0,36.0,29.43,SE,135,0.0,1.0,76,-99.99,,,-99.99,,2013-04-07 02:12:00,
2013-04-06 21:23:00,42.0,35.0,29.43,South,180,0.0,0.0,76,-99.99,,,-99.99,,2013-04-07 02:23:00,
2013-04-06 21:32:00,42.0,35.0,29.43,South,180,0.0,0.0,76,-99.99,,,-99.99,,2013-04-07 02:32:00,
2013-04-06 21:43:00,42.0,35.0,29.43,South,180,0.0,0.0,76,-99.99,,,-99.99,,2013-04-07 02:43:00,
2013-04-06 21:52:00,42.0,35.0,29.43,NW,315,0.0,0.0,76,-99.99,,,-99.99,,2013-04-07 02:52:00,
2013-04-06 22:02:00,43.0,37.0,29.43,SSE,168,1.0,3.0,80,-99.99,,,-99.99,,2013-04-07 03:02:00,
2013-04-06 22:12:00,43.0,37.0,29.43,SSE,168,1.0,3.0,80,-99.99,,,-99.99,,2013-04-07 03:12:00,
2013-04-06 22:22:00,43.0,37.0,29.43,SW,225,3.0,4.0,78,-99.99,,,-99.99,,2013-04-07 03:22:00,
2013-04-06 22:34:00,43.0,37.0,29.43,SW,225,3.0,4.0,78,-99.99,,,-99.99,,2013-04-07 03:34:00,
2013-04-06 22:43:00,43.0,37.0,29.43,SW,225,3.0,4.0,78,-99.99,,,-99.99,,2013-04-07 03:43:00,
2013-04-06 22:53:00,44.0,35.0,29.44,West,270,1.0,5.0,70,-99.99,,,-99.99,,2013-04-07 03:53:00,
2013-04-06 23:03:00,44.0,35.0,29.44,WSW,249,0.0,6.0,71,-99.99,,,-99.99,,2013-04-07 04:03:00,
2013-04-06 23:14:00,44.0,35.0,29.44,WSW,249,0.0,6.0,71,-99.99,,,-99.99,,2013-04-07 04:14:00,
2013-04-06 23:23:00,44.0,36.0,29.44,West,270,5.0,10.0,72,-99.99,,,-99.99,,2013-04-07 04:23:00,
2013-04-06 23:32:00,43.0,35.0,29.45,WNW,285,5.0,6.0,72,-99.99,,,-99.99,,2013-04-07 04:32:00,
2013-04-06 23:43:00,43.0,35.0,29.45,WNW,285,5.0,6.0,72,-99.99,,,-99.99,,2013-04-07 04:43:00,
2013-04-06 23:53:00,43.0,35.0,29.46,NNW,342,1.0,9.0,73,-99.99,,,-99.99,,2013-04-07 04:53:00,